ATLAS CENTAUR 2 DEB, 701

Orbit data source: Space-Track

ATLAS CENTAUR 2 DEB, 701 is space debris in LEO originally from a launch on Wed, 27 Nov 1963 UTC launched from the Air Force Eastern Test Range (AFETR). Debris objects in space refer to the collection of defunct objects orbiting the Earth. Examples of debris include non-operational satellites, rocket bodies, and fragments generated from explosions, collisions, or faulty payload assembly.

Loading next visibility...
Identifier
701, 1963-047G
Orbit
LEO
Last TLE update
2 days ago
Origin
Manufacturer
GD/Convair
Mission
Spacecraft
Bus & Motor
CENTAUR PART, Unknown motor
Mass
Unknown
Launch date (UTC)
1963-11-27 (61 years ago)
Launch vehicle
Unknown
Launch site
Air Force Eastern Test Range (AFETR)
Object type
Payload
Rocket body
Debris
Shape & HBR
Unknown
Radar Cross Section
0.560 m², Medium (>0.1 m² and < 1m²)

Expand to show TLE details & history

TLE from 2 days ago
0 ATLAS CENTAUR 2 DEB
1 00701U 63047G   25118.37945755  .00002132  00000-0  69116-3 0  9994
2 00701  30.0090 156.3069 0508596   4.4039 356.0807 13.82192444 52762
Epoch: 2025-04-28T09:06Z
Definitive object data (Epoch: 2025-04-28T09:06:25.132Z)
Latitude
0.00002°
Longitude
163.1079°
Altitude
582.663 km
Speed
7.76 km/s
True Right ascension
10h 25m 13s
True Declination
0° 00' 00"
Sunlit
Object was in full shadow at TLE epoch
Visualization TLE readout
Latitude
10.23219°
Longitude
172.34101°
Altitude
581.202 km
Speed
7.762 km/s
Apparent Right ascension
14h 02m 08s
Apparent Declination
-34° 41' 32"
Sunlit
Object is in full shadow
Visualization observer readout
Local Sidereal Time
08:36:47
Azimuth
122.409° SE
Elevation
-15.677°
Doppler factor
1
Orbital elements
Apogee altitude
1,333.102 km
Perigee altitude
586.684 km
Semi-major axis
7,338.03 km
Eccentricity
0.0508596
Inclination
30.009°
RAAN
156.3069°
Arg. of periapsis
4.4039°
True anomaly
355.65545°
Mean anomaly
356.0807°
Eccentric anomaly
355.87088°
Mean motion
3.45282 °/min
BSTAR
0.00069116
Orbital period
104.26 mins
Loading maneuver chart data...
Loading SW <> Apogee altitude chart data...

ATLAS CENTAUR 2 DEB Visibility forecast

Observer location: undefined°, undefined°

Span
Click to sort rows by Start time (UTC) header in descending order
Start Az.
Max El. time (UTC)
Max El. Az.
Max El.
End time (UTC)
End Az.
7 mins2025-04-30 06:26:19.663Z209.776° SW2025-04-30 06:29:19.663Z169.361° S19.077°2025-04-30 06:33:19.663Z118.355° SE
8 mins2025-04-30 08:16:19.663Z228.246° WSW2025-04-30 08:19:19.663Z182.661° SSW26.453°2025-04-30 08:24:19.663Z121.996° SE
8 mins2025-04-30 10:06:19.663Z234.973° WSW2025-04-30 10:09:19.663Z198.1° SSW22.705°2025-04-30 10:14:19.663Z145.179° SSE
4 mins2025-04-30 11:58:19.663Z218.923° SW2025-04-30 12:00:19.663Z201.347° SSW12.369°2025-04-30 12:02:19.663Z185.105° SSW
|